Weather History for Dutch Harbor, AK

Change the Weather History Date:

Saturday, October 13, 2012

  Actual Average Record
Temperature  
Mean Temperature 39 °F -  
Max Temperature 42 °F 49 °F 57 °F (1993)
Min Temperature 36 °F 36 °F 22 °F (1988)
Degree Days  
Heating Degree Days 26    
Moisture  
Dew Point 29 °F    
Average Humidity 67    
Maximum Humidity 82    
Minimum Humidity 57    
Precipitation  
Precipitation 0.00 in - - ()
Sea Level Pressure  
Sea Level Pressure 29.51 in    
Wind  
Wind Speed 23 mph (NNW)    
Max Wind Speed 36 mph    
Max Gust Speed 47 mph    
Visibility 10 miles    
Events Rain    
Averages and records for this station are not official NWS values.
T = Trace of Precipitation, MM = Missing Value Source: NWS Daily Summary

Daily Weather History Graph

Daily Weather History Graph

Search for Another Location

Airport:

Trip Planner

Search our weather history database for the weather conditions in past years. The results will help you decide how hot, cold, wet, or windy it might be!

Date:

Astronomy

Oct. 13, 2012 Rise Set
Actual Time 9:31 AM AKDT 8:11 PM AKDT
Civil Twilight 8:55 AM AKDT 8:47 PM AKDT
Nautical Twilight 8:15 AM AKDT 9:28 PM AKDT
Astronomical Twilight 7:33 AM AKDT 10:09 PM AKDT
Moon 7:24 AM AKDT (10/13) 7:09 PM AKDT (10/13)
Length of Visible Light 11h 51m
Length of Day
10h 40m
Waning Crescent, 4% of the Moon is Illuminated
Oct 13
Waning Crescent
Oct 15
New
Oct 21
First Quarter
Oct 29
Full
Nov 6
Last Quarter

Hourly Weather History & Observations

Time (AKDT) Temp. Windchill Dew Point Humidity Pressure Visibility Wind Dir Wind Speed Gust Speed Precip Events Conditions
12:56 AM 42.1 °F 33.9 °F 34.0 °F 73% 29.40 in 10.0 mi NNW 17.3 mph 40.3 mph N/A   Overcast
1:56 AM 42.1 °F 34.5 °F 32.0 °F 67% 29.41 in 10.0 mi North 15.0 mph 33.4 mph N/A   Overcast
2:56 AM 41.0 °F 31.4 °F 32.0 °F 70% 29.41 in 10.0 mi North 21.9 mph 36.8 mph N/A   Overcast
3:52 AM 39.2 °F 28.7 °F 30.2 °F 70% 29.40 in 10.0 mi NNW 23.0 mph 36.8 mph 0.00 in   Overcast
3:56 AM 41.0 °F 30.2 °F 30.9 °F 67% 29.42 in 10.0 mi North 27.6 mph 38.0 mph 0.00 in   Overcast
4:56 AM 37.9 °F 25.1 °F 32.0 °F 79% 29.42 in 7.0 mi NNW 33.4 mph 44.9 mph 0.00 in Rain Light Rain
5:36 AM 39.2 °F 28.0 °F 30.2 °F 70% 29.41 in 10.0 mi North 26.5 mph 32.2 mph 0.00 in   Overcast
5:56 AM 39.0 °F 26.2 °F 32.0 °F 76% 29.43 in 10.0 mi NNW 35.7 mph 40.3 mph 0.00 in Rain Light Rain
6:22 AM 39.2 °F 27.0 °F 30.2 °F 70% 29.42 in 10.0 mi NNW 32.2 mph 39.1 mph 0.00 in   Overcast
6:56 AM 37.9 °F 26.3 °F 30.9 °F 76% 29.45 in 6.0 mi NNW 26.5 mph 32.2 mph 0.00 in Rain Light Rain
7:56 AM 39.0 °F 29.0 °F 28.9 °F 67% 29.47 in 10.0 mi North 20.7 mph 33.4 mph 0.00 in   Overcast
8:23 AM 39.2 °F 29.6 °F 28.4 °F 65% 29.45 in 10.0 mi NNW 19.6 mph 36.8 mph N/A   Overcast
8:56 AM 37.9 °F 28.9 °F 28.0 °F 68% 29.49 in 10.0 mi North 16.1 mph 32.2 mph 0.00 in Rain Light Rain
9:10 AM 39.2 °F 28.3 °F 30.2 °F 70% 29.45 in 10.0 mi NNW 25.3 mph 38.0 mph 0.00 in Rain Light Rain
9:25 AM 39.2 °F 28.0 °F 28.4 °F 65% 29.47 in 10.0 mi NNW 26.5 mph 47.2 mph 0.00 in   Overcast
9:56 AM 37.9 °F 27.3 °F 28.9 °F 70% 29.49 in 10.0 mi NNW 21.9 mph 33.4 mph 0.00 in Rain Light Rain
9:58 AM 39.2 °F 26.8 °F 28.4 °F 65% 29.46 in 10.0 mi NNW 33.4 mph 40.3 mph 0.00 in Rain Light Rain
10:56 AM 39.0 °F 28.8 °F 26.1 °F 60% 29.51 in 10.0 mi NNW 21.9 mph 39.1 mph 0.00 in Rain Light Rain
11:44 AM 39.2 °F 29.0 °F 28.4 °F 65% 29.51 in 8.0 mi North 21.9 mph 38.0 mph 0.00 in Rain Light Rain
11:56 AM 39.0 °F 27.4 °F 28.9 °F 67% 29.52 in 8.0 mi NNW 28.8 mph 39.1 mph 0.00 in Rain Light Rain
12:17 PM 39.2 °F 29.6 °F 28.4 °F 65% 29.52 in 10.0 mi North 19.6 mph 31.1 mph 0.00 in Rain Light Rain
12:56 PM 39.0 °F 28.5 °F 28.0 °F 65% 29.55 in 10.0 mi North 23.0 mph 34.5 mph 0.00 in Rain Light Rain
1:08 PM 39.2 °F 28.3 °F 28.4 °F 65% 29.53 in 10.0 mi North 25.3 mph 36.8 mph 0.00 in Rain Light Rain
1:56 PM 39.0 °F 30.6 °F 25.0 °F 57% 29.57 in 10.0 mi North 15.0 mph 42.6 mph 0.00 in Rain Light Rain
2:56 PM 39.0 °F 27.6 °F 27.0 °F 62% 29.57 in 10.0 mi NNW 27.6 mph 33.4 mph 0.00 in   Overcast
3:56 PM 37.9 °F 27.1 °F 30.0 °F 73% 29.57 in 10.0 mi NNW 23.0 mph 26.5 mph 0.00 in Rain Light Rain
4:02 PM 39.2 °F 29.8 °F 30.2 °F 70% 29.56 in 10.0 mi NNW 18.4 mph 26.5 mph 0.00 in Rain Light Rain
4:56 PM 36.0 °F 26.7 °F 30.9 °F 82% 29.59 in 6.0 mi North 15.0 mph 31.1 mph 0.00 in Rain Light Rain
5:56 PM 39.9 °F 28.4 °F 27.0 °F 60% 29.59 in 10.0 mi NNW 29.9 mph 35.7 mph 0.00 in Rain Rain Showers
6:08 PM 39.2 °F 29.0 °F 26.6 °F 61% 29.58 in 10.0 mi NNW 21.9 mph 33.4 mph 0.00 in   Overcast
6:56 PM 39.0 °F 27.8 °F 26.1 °F 60% 29.60 in 10.0 mi NNW 26.5 mph 34.5 mph 0.00 in Rain Light Rain
7:56 PM 39.0 °F 27.4 °F 27.0 °F 62% 29.61 in 10.0 mi NNW 28.8 mph 34.5 mph 0.00 in   Overcast
8:56 PM 39.0 °F 28.8 °F 27.0 °F 62% 29.63 in 10.0 mi NNW 21.9 mph 44.9 mph 0.00 in   Overcast
9:56 PM 39.9 °F 29.0 °F 26.1 °F 58% 29.63 in 10.0 mi NNW 26.5 mph 34.5 mph 0.00 in   Overcast
10:56 PM 39.9 °F 29.5 °F 27.0 °F 60% 29.64 in 10.0 mi NNW 24.2 mph 34.5 mph 0.00 in Rain Light Rain
11:56 PM 39.9 °F 29.0 °F 27.0 °F 60% 29.65 in 10.0 mi NNW 26.5 mph 39.1 mph 0.00 in Rain Light Rain